Location: Unspecified
(37.7155°N, 0.0000°E)
Time: 14:09:47
(UTC+00:00)

IRIDIUM 140 - Visible Passes

Search period start: 04 April 2026 00:00
Search period end: 14 April 2026 00:00
Orbit: 776 x 779 km, 86.4° (Epoch: 29 March)

Date Brightness Start Highest point End Pass type
(mag) Time Alt. Az. Time Alt. Az. Time Alt. Az.
4 Apr ? 19:59:00 10° N 20:04:11 62° E 20:06:40 30° SSE visible
4 Apr ? 21:41:51 10° NW 21:44:16 13° WNW 21:46:41 10° WSW visible
5 Apr ? 19:25:52 10° NNE 19:30:33 33° E 19:33:58 16° SE visible
5 Apr ? 21:06:51 10° NNW 21:11:03 25° W 21:14:29 13° SW visible
6 Apr ? 18:53:17 10° NE 18:56:46 18° ENE 19:00:14 10° ESE visible
6 Apr ? 20:32:44 10° NNW 20:37:44 47° W 20:41:51 15° SSW visible
7 Apr ? 19:59:02 10° N 20:04:17 89° W 20:09:17 11° S visible
8 Apr ? 19:25:40 10° N 19:30:43 48° E 19:35:44 10° SSE visible
8 Apr ? 21:07:39 10° NW 21:10:58 17° W 21:14:18 10° WSW visible
9 Apr ? 18:52:42 10° NNE 18:57:01 26° E 19:01:19 10° SE visible
9 Apr ? 20:33:07 10° NNW 20:37:43 32° W 20:42:17 10° SW visible
10 Apr ? 19:59:11 10° N 20:04:20 61° W 20:09:28 10° SSW visible
11 Apr ? 19:25:37 10° N 19:30:51 71° E 19:36:02 10° S visible
11 Apr ? 21:09:08 10° WNW 21:10:50 12° WNW 21:12:31 10° W visible
12 Apr ? 18:52:24 10° NNE 18:57:14 37° E 19:02:02 10° SSE visible
12 Apr ? 20:33:42 10° NNW 20:37:39 22° W 20:41:36 10° SW visible
13 Apr ? 19:59:28 10° NNW 20:04:20 41° W 20:09:13 10° SSW visible
